Location: Anciles
(42.5833°N, 0.5167°E)
Time: 13:54:24
(UTC+00:00)

SL-16 R/B - Pass Details

Date: 10 December 2019
Orbit: 840 x 849 km, 71.0° (Epoch: 23 January)

Event Time Altitude Azimuth Distance (km) Brightness Sun altitude
Rises 19:02:21 0° 225° (SW) 3,394 6.1 -28.2°
Reaches altitude 10° 19:04:56 10° 233° (SW) 2,464 5.3 -28.6°
Maximum altitude 19:10:14 40° 302° (WNW) 1,239 3.3 -29.6°
Enters shadow 19:12:24 29° 347° (NNW) 1,520 3.5 -30.0°
